sat.trackr.live / text

‹ back to catalog

STARLINK-33924

NORAD 64149 · 2025-112D

PAYLOAD ACTIVE UNKNOWN

§ Identity

Operator
Country
US
Launch date
2025-05-27
Launch site
AFWTR
Launch vehicle
Mass (kg)
RCS (m²)

Purposes: comms

External: N2YO · Heavens-Above · Gunter

§ Orbital elements

Epoch: 2026-05-25T02:42:08.728128Z

Period
95.64 min
Inclination
97.4493°
Eccentricity
0.0001692
Mean motion
15.05657551 rev/d
Perigee alt
548.3 km
Apogee alt
550.7 km
Semi-major
6,927.6 km
B*
2.0075e-4
RAAN
196.4175°
Arg perigee
132.2043°
Mean anomaly
227.9328°
Rev number
5,480

§ Raw data

STARLINK-339241 64149U 25112D   26145.11260102  .00002840  00000+0  20075-3 0  99962 64149  97.4493 196.4175 0001692 132.2043 227.9328 15.05657551 54808

JSON: /api/v1/satellites/64149 · /tle

For live sub-satellite position, see the globe view (requires WebGL).

§ Visibility from observer

Set your observer location to see the next 7 days of passes ≥ 10°. The values pass through the URL so the page stays shareable.

No JS? Fill the form by hand. The geolocation button needs JavaScript.